Capitán FAP Renán Elías Olivera International Airport
SPSO : now visible

Airfield :











YOU CAN JOIN US ON...

 
LOGIN :

Register | Disclaimer

   EN    FR    IT 

 









Legend :    VFR   Marginal VFR   IFR   Intensive IFR   Very Intensive IFR
Visi :
Ceiling :
>= 8 km
>= 3000ft
5 to 8 km
1000 to 3000 ft
1500m to 5 km
500 to 1000 ft
800 to 1500m
200 to 500 ft
< 800m
< 200 ft
Symbols :   Thunderstorms  Fog  Heavy snow  Heavy precipitations  Wind > 20 kt






- Airport Elevation : 39 ft
- IATA code : PIO


SPSO - Capitán FAP Renán Elías Olivera International

CURRENT METAR :
  • 021500Z 28006KT CAVOK 22/17 Q1013 RMK BIRD HAZARD RWY 22/04 PP000

EXPIRED METARs :
  • 021400Z 28003KT 230V310 CAVOK 21/17 Q1014 RMK BIRD HAZARD RWY 22/04 PP000
  • 021300Z VRB01KT 9000 NSC 20/16 Q1014 RMK BIRD HAZARD RWY 22/04 PP000

TAF SPSO
Valid from the 02 at 12:00 until the 03 at 12:00 UTC


021100Z 0212/0312 21005KT CAVOK TX22/0219Z TN18/0311Z
TEMPO 0212/0214 4500 BR BKN008
BECMG 0214/0216 29010KT
BECMG 0218/0220 22016KT
BECMG 0302/0304 20006KT
SPIM FIR / South America



MET'MAP, your aeronautical weather chart ! - Copyright ORBIFLY December 2007 - Disclaimer

ORBIFLY MET'MAP TEAM :

Programming & Development : Alexandra Zaïnal
Concept & original design : Baudouin d'Aumeries
Assistance for programming : Marc-Olivier Méhu
Technical & hardware support : Manuel Goepfert

Contact : metmap@orbifly.com




SOURCES & CREDITS :

   NOAA       Earth
Advisory